M I D A S
Marine Information and Data Acquisition System
Tripno 1741 of the Zeeleeuw from 2009-07-29 06:19:07 to 2009-07-29 17:33:58
Back to CruiseResearch ActivitiesStationsMapUnderway DataData graphs

EquipmentUnitsComments
TimeDGPSUTC
LatitudeDGPSDM.mWGS84
LongitudeDGPSDM.mWGS84
SpeedMeteo Stationm/sRelative wind speed
DirectionMeteo StationdegRelative wind direction
TemperatureMeteo Stationdeg CelciusAir temperature
PressureMeteo StationPaAtmospheric pressure
HumidityMeteo Station%Relative humidity
Missing or incorrect values are displayed as -999
Metereological data collected by the RV Zeeleeuw from 2009-07-29 06:05:33 to 2009-07-29 17:36:39
                                                                                    Next 1000 lines
Time Latitude Longitude Speed Direction Temperature Pressure Humidity
2009-07-29 06:05:43 51°13.663 2°55.954 3.9 355 16.2 101580 62
2009-07-29 06:05:49 51°13.664 2°55.951 3.6 358 16.2 101580 63
2009-07-29 06:05:53 51°13.664 2°55.948 2.6 2 16.2 101580 63
2009-07-29 06:05:58 51°13.665 2°55.944 2.1 348 16.2 101580 63
2009-07-29 06:06:04 51°13.667 2°55.938 2 360 16.2 101580 63
2009-07-29 06:06:09 51°13.669 2°55.933 1.8 2 16.1 101580 63
2009-07-29 06:06:15 51°13.671 2°55.926 1.7 5 16.1 101580 63
2009-07-29 06:06:21 51°13.673 2°55.919 1.9 6 16.1 101580 63
2009-07-29 06:06:26 51°13.674 2°55.912 2 12 16.1 101580 63
2009-07-29 06:06:32 51°13.677 2°55.904 2.2 25 16.1 101580 63
2009-07-29 06:06:37 51°13.679 2°55.897 2.6 9 16.1 101580 63
2009-07-29 06:06:42 51°13.681 2°55.89 2.1 15 16.1 101580 63
2009-07-29 06:06:47 51°13.683 2°55.883 2.2 21 16.1 101580 63
2009-07-29 06:06:52 51°13.685 2°55.875 2.7 20 16.1 101580 63
2009-07-29 06:06:57 51°13.687 2°55.868 3.2 17 16.1 101580 63
2009-07-29 06:07:02 51°13.689 2°55.86 3.1 2 16.1 101580 63
2009-07-29 06:07:07 51°13.691 2°55.853 2.2 11 16.1 101580 63
2009-07-29 06:07:12 51°13.693 2°55.846 2.7 8 16.1 101580 63
2009-07-29 06:07:17 51°13.695 2°55.839 2.4 3 16.1 101580 63
2009-07-29 06:07:22 51°13.698 2°55.832 2.3 2 16.1 101580 63
2009-07-29 06:07:27 51°13.7 2°55.826 2.5 8 16.1 101580 63
2009-07-29 06:07:32 51°13.702 2°55.819 2.3 5 16.1 101580 63
2009-07-29 06:07:37 51°13.704 2°55.812 1.9 15 16.1 101580 63
2009-07-29 06:07:42 51°13.706 2°55.805 1.8 15 16.1 101580 62
2009-07-29 06:07:47 51°13.709 2°55.798 1.6 2 16.1 101580 62
2009-07-29 06:07:52 51°13.711 2°55.792 1.5 10 16.1 101580 63
2009-07-29 06:07:57 51°13.714 2°55.785 0.9 7 16.1 101580 63
2009-07-29 06:08:02 51°13.717 2°55.779 1.4 2 16.1 101580 62
2009-07-29 06:08:07 51°13.72 2°55.773 1.1 2 16.1 101580 62
2009-07-29 06:08:12 51°13.723 2°55.767 1.1 3 16.1 101580 62
2009-07-29 06:08:17 51°13.726 2°55.76 0.7 3 16.1 101580 62
2009-07-29 06:08:22 51°13.729 2°55.754 0.9 3 16.1 101580 62
2009-07-29 06:08:27 51°13.732 2°55.748 0.7 14 16.1 101580 62
2009-07-29 06:08:32 51°13.735 2°55.742 1.3 14 16.1 101580 63
2009-07-29 06:08:37 51°13.739 2°55.736 1.2 7 16.1 101580 63
2009-07-29 06:08:42 51°13.742 2°55.73 0.9 6 16.1 101580 63
2009-07-29 06:08:47 51°13.746 2°55.725 0.8 7 16.1 101580 63
2009-07-29 06:08:52 51°13.75 2°55.719 1.3 5 16.2 101580 63
2009-07-29 06:08:57 51°13.754 2°55.713 1.2 347 16.2 101580 63
2009-07-29 06:09:02 51°13.758 2°55.708 1.3 354 16.2 101580 62
2009-07-29 06:09:07 51°13.762 2°55.702 0.8 348 16.2 101580 62
2009-07-29 06:09:12 51°13.767 2°55.697 0.6 347 16.2 101580 63
2009-07-29 06:09:17 51°13.771 2°55.691 0.4 347 16.2 101580 63
2009-07-29 06:09:22 51°13.776 2°55.686 0.3 347 16.2 101580 62
2009-07-29 06:09:27 51°13.781 2°55.681 0.3 347 16.2 101580 62
2009-07-29 06:09:32 51°13.786 2°55.676 0.3 347 16.2 101580 63
2009-07-29 06:09:37 51°13.791 2°55.67 0.3 347 16.2 101580 63
2009-07-29 06:09:42 51°13.796 2°55.665 0.3 347 16.2 101580 63
2009-07-29 06:09:47 51°13.802 2°55.66 0.6 329 16.2 101580 63
2009-07-29 06:09:52 51°13.807 2°55.656 0.8 328 16.2 101580 62
2009-07-29 06:09:57 51°13.813 2°55.651 0.9 302 16.2 101580 62
2009-07-29 06:10:01 51°13.817 2°55.647 0.8 323 16.2 101580 62
2009-07-29 06:10:07 51°13.824 2°55.643 0.9 308 16.2 101580 62
2009-07-29 06:10:12 51°13.829 2°55.639 0.9 23 16.2 101580 63
2009-07-29 06:10:17 51°13.835 2°55.636 1 302 16.2 101580 63
2009-07-29 06:10:22 51°13.84 2°55.633 1.2 319 16.2 101580 62
2009-07-29 06:10:27 51°13.846 2°55.63 0.9 302 16.2 101580 62
2009-07-29 06:10:32 51°13.851 2°55.628 1.2 22 16.2 101580 63
2009-07-29 06:10:37 51°13.857 2°55.627 1.2 301 16.2 101580 63
2009-07-29 06:10:42 51°13.862 2°55.626 1.3 21 16.2 101590 62
2009-07-29 06:10:47 51°13.868 2°55.625 1.4 301 16.2 101590 62
2009-07-29 06:10:52 51°13.873 2°55.625 1.4 20 16.2 101580 62
2009-07-29 06:10:57 51°13.878 2°55.625 0.8 302 16.2 101580 62
2009-07-29 06:11:02 51°13.883 2°55.626 1.3 20 16.2 101580 63
2009-07-29 06:11:07 51°13.887 2°55.627 1.5 307 16.2 101580 63
2009-07-29 06:11:12 51°13.892 2°55.628 1.6 246 16.2 101590 62
2009-07-29 06:11:17 51°13.896 2°55.629 2.4 304 16.2 101590 62
2009-07-29 06:11:22 51°13.9 2°55.63 2.6 257 16.2 101580 62
2009-07-29 06:11:27 51°13.904 2°55.632 3.1 303 16.2 101580 62
2009-07-29 06:11:32 51°13.908 2°55.634 2.9 254 16.2 101590 62
2009-07-29 06:11:37 51°13.911 2°55.636 1.6 304 16.2 101590 62
2009-07-29 06:11:42 51°13.915 2°55.639 1.5 265 16.2 101590 62
2009-07-29 06:11:47 51°13.918 2°55.641 2 305 16.2 101590 62
2009-07-29 06:11:52 51°13.921 2°55.644 2.6 258 16.2 101580 62
2009-07-29 06:11:57 51°13.924 2°55.647 2.9 302 16.2 101580 62
2009-07-29 06:12:01 51°13.926 2°55.649 3.2 260 16.2 101590 62
2009-07-29 06:12:07 51°13.929 2°55.652 4.1 303 16.2 101590 62
2009-07-29 06:12:11 51°13.93 2°55.653 3 259 16.3 101590 62
2009-07-29 06:12:16 51°13.932 2°55.655 3.3 306 16.3 101590 62
2009-07-29 06:12:21 51°13.933 2°55.655 2 261 16.3 101590 61
2009-07-29 06:12:26 51°13.933 2°55.655 3 310 16.3 101590 61
2009-07-29 06:12:31 51°13.934 2°55.654 1.9 266 16.3 101590 61
2009-07-29 06:12:36 51°13.934 2°55.652 4 308 16.3 101590 61
2009-07-29 06:12:41 51°13.934 2°55.649 4.7 255 16.3 101580 62
2009-07-29 06:12:45 51°13.934 2°55.646 4 301 16.3 101580 62
2009-07-29 06:12:50 51°13.934 2°55.641 3 269 16.3 101590 62
2009-07-29 06:12:55 51°13.935 2°55.636 2.7 303 16.3 101590 62
2009-07-29 06:13:00 51°13.936 2°55.631 1.9 266 16.3 101590 61
2009-07-29 06:13:05 51°13.938 2°55.625 2.2 60 16.3 101590 61
2009-07-29 06:13:10 51°13.94 2°55.619 1.9 20 16.3 101590 62
2009-07-29 06:13:15 51°13.942 2°55.613 1.4 51 16.3 101590 62
2009-07-29 06:13:20 51°13.946 2°55.607 1.5 21 16.3 101590 63
2009-07-29 06:13:25 51°13.95 2°55.601 1.1 309 16.3 101590 63
2009-07-29 06:13:29 51°13.953 2°55.596 1.1 26 16.3 101590 61
2009-07-29 06:13:34 51°13.958 2°55.59 0.7 58 16.3 101590 61
2009-07-29 06:13:39 51°13.963 2°55.584 0.5 28 16.3 101590 62
2009-07-29 06:13:44 51°13.969 2°55.578 0.3 53 16.3 101590 62
2009-07-29 06:13:49 51°13.975 2°55.571 0.2 21 16.3 101590 62
2009-07-29 06:13:53 51°13.981 2°55.565 0.4 309 16.3 101590 62
2009-07-29 06:13:58 51°13.988 2°55.558 0.5 252 16.3 101590 62
2009-07-29 06:14:03 51°13.995 2°55.551 0.7 336 16.3 101590 62
2009-07-29 06:14:08 51°14.003 2°55.542 0.6 335 16.3 101590 62
2009-07-29 06:14:13 51°14.011 2°55.534 1.4 301 16.3 101590 62
2009-07-29 06:14:18 51°14.019 2°55.525 1.3 26 16.3 101590 62
2009-07-29 06:14:22 51°14.026 2°55.518 1.3 305 16.3 101590 62
2009-07-29 06:14:28 51°14.037 2°55.507 0.9 29 16.3 101590 62
2009-07-29 06:14:33 51°14.047 2°55.497 0.6 304 16.3 101590 62
2009-07-29 06:14:38 51°14.056 2°55.487 0.6 27 16.3 101590 63
2009-07-29 06:14:42 51°14.064 2°55.48 0.8 310 16.3 101590 63
2009-07-29 06:14:48 51°14.076 2°55.468 1 28 16.4 101600 62
2009-07-29 06:14:53 51°14.086 2°55.458 0.6 306 16.4 101600 62
2009-07-29 06:14:58 51°14.097 2°55.448 1 23 16.4 101590 62
2009-07-29 06:15:03 51°14.107 2°55.437 1.2 306 16.4 101590 62
2009-07-29 06:15:08 51°14.118 2°55.427 1.3 29 16.4 101590 62
2009-07-29 06:15:13 51°14.128 2°55.416 1.5 310 16.4 101590 62
2009-07-29 06:15:18 51°14.139 2°55.405 1.6 329 16.4 101600 62
2009-07-29 06:15:23 51°14.149 2°55.394 0.8 329 16.4 101600 62
2009-07-29 06:15:29 51°14.162 2°55.38 1.1 325 16.4 101600 63
2009-07-29 06:15:33 51°14.171 2°55.37 1.5 302 16.4 101600 63
2009-07-29 06:15:38 51°14.181 2°55.357 1.1 321 16.4 101590 62
2009-07-29 06:15:43 51°14.191 2°55.345 1.2 300 16.4 101590 62
2009-07-29 06:15:48 51°14.202 2°55.331 1.3 321 16.4 101590 63
2009-07-29 06:15:53 51°14.212 2°55.318 1.9 305 16.4 101590 63
2009-07-29 06:15:58 51°14.222 2°55.304 1.8 318 16.4 101590 63
2009-07-29 06:16:03 51°14.231 2°55.289 2.3 307 16.4 101590 63
2009-07-29 06:16:08 51°14.24 2°55.273 3.1 320 16.4 101590 62
2009-07-29 06:16:13 51°14.25 2°55.257 3 303 16.4 101590 62
2009-07-29 06:16:18 51°14.259 2°55.241 2.8 316 16.4 101590 63
2009-07-29 06:16:22 51°14.266 2°55.228 2.2 302 16.4 101590 63
2009-07-29 06:16:28 51°14.277 2°55.208 2.4 21 16.4 101590 63
2009-07-29 06:16:33 51°14.286 2°55.192 2.6 301 16.4 101590 63
2009-07-29 06:16:38 51°14.295 2°55.176 3 318 16.5 101590 63
2009-07-29 06:16:44 51°14.305 2°55.156 2.4 310 16.5 101590 63
2009-07-29 06:16:49 51°14.314 2°55.14 3.2 26 16.4 101590 62
2009-07-29 06:16:54 51°14.323 2°55.123 2 303 16.4 101590 62
2009-07-29 06:16:58 51°14.33 2°55.11 2 22 16.4 101600 62
2009-07-29 06:17:03 51°14.339 2°55.093 2.6 306 16.4 101600 62
2009-07-29 06:17:08 51°14.348 2°55.077 2.4 245 16.4 101600 62
2009-07-29 06:17:14 51°14.359 2°55.056 2.1 301 16.4 101600 62
2009-07-29 06:17:18 51°14.366 2°55.043 2.4 323 16.4 101590 62
2009-07-29 06:17:23 51°14.376 2°55.027 2.5 302 16.4 101590 62
2009-07-29 06:17:29 51°14.389 2°55.009 1.7 323 16.4 101600 62
2009-07-29 06:17:34 51°14.4 2°54.995 1.3 306 16.4 101600 62
2009-07-29 06:17:38 51°14.41 2°54.985 1.2 253 16.4 101590 62
2009-07-29 06:17:43 51°14.422 2°54.973 0.8 303 16.4 101590 62
2009-07-29 06:17:48 51°14.435 2°54.962 0.4 253 16.4 101590 62
2009-07-29 06:17:54 51°14.451 2°54.95 0.2 304 16.4 101590 62
2009-07-29 06:17:58 51°14.462 2°54.941 0.3 19 16.4 101600 62
2009-07-29 06:18:02 51°14.473 2°54.933 0.2 302 16.4 101600 62
2009-07-29 06:18:08 51°14.489 2°54.919 0.4 26 16.4 101600 62
2009-07-29 06:18:14 51°14.506 2°54.905 0.5 333 16.4 101600 62
2009-07-29 06:18:18 51°14.517 2°54.896 1 340 16.4 101590 62
2009-07-29 06:18:22 51°14.528 2°54.886 1.6 346 16.4 101590 62
2009-07-29 06:18:28 51°14.545 2°54.872 1.6 341 16.4 101600 61
2009-07-29 06:18:33 51°14.559 2°54.861 1.3 342 16.4 101600 61
2009-07-29 06:18:38 51°14.574 2°54.849 1.5 343 16.4 101590 61
2009-07-29 06:18:43 51°14.588 2°54.837 1 346 16.4 101590 61
2009-07-29 06:18:49 51°14.605 2°54.822 1.4 346 16.4 101590 62
2009-07-29 06:18:54 51°14.62 2°54.81 1.4 353 16.4 101590 62
2009-07-29 06:18:58 51°14.631 2°54.8 1.2 353 16.4 101590 61
2009-07-29 06:19:03 51°14.646 2°54.789 0.7 353 16.4 101590 61
2009-07-29 06:19:09 51°14.663 2°54.774 0.7 353 16.4 101600 61
2009-07-29 06:19:14 51°14.678 2°54.762 0.7 356 16.4 101600 61
2009-07-29 06:19:18 51°14.689 2°54.752 0.9 357 16.4 101590 61
2009-07-29 06:19:23 51°14.704 2°54.741 0.9 356 16.4 101590 61
2009-07-29 06:19:28 51°14.718 2°54.729 0.8 2 16.4 101590 61
2009-07-29 06:19:34 51°14.735 2°54.714 0.7 10 16.4 101590 61
2009-07-29 06:19:38 51°14.747 2°54.704 0.5 10 16.4 101590 61
2009-07-29 06:19:43 51°14.761 2°54.691 0.5 10 16.4 101590 61
2009-07-29 06:19:49 51°14.778 2°54.676 0.7 9 16.4 101590 61
2009-07-29 06:19:54 51°14.793 2°54.664 0.9 8 16.4 101590 61
2009-07-29 06:19:58 51°14.804 2°54.654 0.8 4 16.4 101590 61
2009-07-29 06:20:03 51°14.818 2°54.641 0.9 360 16.4 101590 61
2009-07-29 06:20:09 51°14.835 2°54.626 0.8 359 16.4 101590 61
2009-07-29 06:20:14 51°14.85 2°54.613 0.7 359 16.4 101590 61
2009-07-29 06:20:18 51°14.861 2°54.603 0.7 359 16.4 101590 61
2009-07-29 06:20:23 51°14.875 2°54.59 0.6 359 16.4 101590 61
2009-07-29 06:20:28 51°14.889 2°54.577 0.6 359 16.4 101590 61
2009-07-29 06:20:33 51°14.904 2°54.564 0.7 355 16.4 101590 61
2009-07-29 06:20:38 51°14.918 2°54.551 0.9 356 16.5 101590 60
2009-07-29 06:20:43 51°14.932 2°54.538 0.6 356 16.5 101590 60
2009-07-29 06:20:48 51°14.946 2°54.525 0.7 355 16.4 101590 61
2009-07-29 06:20:53 51°14.96 2°54.511 0.8 354 16.4 101590 61
2009-07-29 06:20:58 51°14.974 2°54.498 0.6 355 16.5 101590 62
2009-07-29 06:21:04 51°14.991 2°54.482 0.7 357 16.5 101590 62
2009-07-29 06:21:09 51°15.004 2°54.468 0.5 357 16.5 101590 61
2009-07-29 06:21:14 51°15.018 2°54.453 0.3 358 16.5 101590 61
2009-07-29 06:21:19 51°15.031 2°54.439 0.4 358 16.5 101590 61
2009-07-29 06:21:23 51°15.042 2°54.429 0.6 2 16.5 101590 61
2009-07-29 06:21:28 51°15.056 2°54.416 0.6 2 16.5 101590 60
2009-07-29 06:21:34 51°15.073 2°54.399 0.4 2 16.5 101590 60
2009-07-29 06:21:39 51°15.087 2°54.387 0.4 349 16.5 101590 61
2009-07-29 06:21:43 51°15.098 2°54.376 0.6 342 16.5 101590 61
2009-07-29 06:21:48 51°15.112 2°54.363 0.8 347 16.6 101590 61
2009-07-29 06:21:54 51°15.129 2°54.348 0.6 351 16.6 101590 61
2009-07-29 06:21:59 51°15.143 2°54.335 0.5 350 16.6 101590 61
2009-07-29 06:22:03 51°15.155 2°54.324 0.6 349 16.6 101590 61
2009-07-29 06:22:07 51°15.166 2°54.314 0.5 348 16.6 101590 61
2009-07-29 06:22:13 51°15.183 2°54.299 0.9 330 16.6 101590 61
2009-07-29 06:22:19 51°15.2 2°54.283 0.8 329 16.6 101590 61
2009-07-29 06:22:23 51°15.211 2°54.272 0.7 329 16.6 101590 61
2009-07-29 06:22:28 51°15.225 2°54.259 0.7 329 16.6 101590 61
2009-07-29 06:22:34 51°15.242 2°54.243 1.3 301 16.6 101590 61
2009-07-29 06:22:39 51°15.255 2°54.229 1.8 321 16.6 101590 61
2009-07-29 06:22:43 51°15.267 2°54.218 1.2 301 16.6 101590 61
2009-07-29 06:22:48 51°15.28 2°54.204 1.4 21 16.6 101590 62
2009-07-29 06:22:54 51°15.297 2°54.188 1.4 304 16.6 101590 62
2009-07-29 06:22:59 51°15.311 2°54.175 1 21 16.6 101590 62
2009-07-29 06:23:04 51°15.324 2°54.161 0.9 302 16.6 101590 62
2009-07-29 06:23:09 51°15.339 2°54.148 1.3 19 16.6 101600 62
2009-07-29 06:23:13 51°15.35 2°54.137 1.2 307 16.6 101600 62
2009-07-29 06:23:18 51°15.363 2°54.123 1.8 21 16.6 101590 61
2009-07-29 06:23:24 51°15.38 2°54.108 1.3 307 16.6 101590 61
2009-07-29 06:23:28 51°15.391 2°54.097 1.5 21 16.6 101590 61
2009-07-29 06:23:32 51°15.402 2°54.086 1.2 301 16.6 101590 61
2009-07-29 06:23:38 51°15.419 2°54.07 0.8 243 16.6 101600 61
2009-07-29 06:23:44 51°15.436 2°54.054 0.8 302 16.6 101600 61
2009-07-29 06:23:48 51°15.447 2°54.044 0.8 26 16.7 101600 61
2009-07-29 06:23:53 51°15.461 2°54.031 0.8 302 16.7 101600 61
2009-07-29 06:23:58 51°15.475 2°54.018 0.7 20 16.6 101600 61
2009-07-29 06:24:04 51°15.492 2°54.003 0.5 300 16.6 101600 61
2009-07-29 06:24:08 51°15.504 2°53.993 0.6 243 16.7 101600 61
2009-07-29 06:24:13 51°15.518 2°53.981 1.1 304 16.7 101600 61
2009-07-29 06:24:18 51°15.532 2°53.968 1.2 25 16.7 101590 61
2009-07-29 06:24:24 51°15.549 2°53.954 0.9 309 16.7 101590 61
2009-07-29 06:24:28 51°15.561 2°53.944 0.8 20 16.7 101590 61
2009-07-29 06:24:32 51°15.572 2°53.934 0.7 304 16.7 101590 61
2009-07-29 06:24:38 51°15.59 2°53.919 0.5 19 16.7 101600 61
2009-07-29 06:24:44 51°15.607 2°53.904 0.6 310 16.7 101600 61
2009-07-29 06:24:48 51°15.618 2°53.894 0.6 26 16.7 101590 61
2009-07-29 06:24:53 51°15.633 2°53.882 0.9 303 16.7 101590 61
2009-07-29 06:24:59 51°15.65 2°53.868 0.9 21 16.6 101600 61
2009-07-29 06:25:04 51°15.664 2°53.856 0.8 302 16.6 101600 61
2009-07-29 06:25:08 51°15.676 2°53.846 0.8 25 16.6 101590 61
2009-07-29 06:25:12 51°15.687 2°53.836 0.7 307 16.6 101590 61
2009-07-29 06:25:18 51°15.704 2°53.821 0.9 21 16.7 101590 61
2009-07-29 06:25:24 51°15.722 2°53.807 0.7 303 16.7 101590 61
2009-07-29 06:25:28 51°15.733 2°53.797 0.5 25 16.7 101590 61
2009-07-29 06:25:32 51°15.745 2°53.787 0.4 308 16.7 101590 61
2009-07-29 06:25:38 51°15.762 2°53.773 0.3 28 16.7 101590 61
2009-07-29 06:25:44 51°15.78 2°53.759 0.2 310 16.7 101590 61
2009-07-29 06:25:48 51°15.791 2°53.75 0.1 26 16.7 101590 61
2009-07-29 06:25:53 51°15.806 2°53.738 0.1 305 16.7 101590 61
2009-07-29 06:25:58 51°15.82 2°53.726 -999 24 16.7 101590 61
2009-07-29 06:26:04 51°15.838 2°53.712 -999 305 16.7 101590 61
2009-07-29 06:26:08 51°15.849 2°53.702 0.1 19 16.7 101590 61
2009-07-29 06:26:13 51°15.864 2°53.691 0.4 302 16.7 101590 61
2009-07-29 06:26:18 51°15.879 2°53.679 0.5 20 16.7 101590 61
2009-07-29 06:26:23 51°15.893 2°53.667 0.5 310 16.7 101590 61
2009-07-29 06:26:28 51°15.908 2°53.656 0.7 26 16.7 101590 61
2009-07-29 06:26:33 51°15.922 2°53.644 0.7 308 16.7 101590 61
2009-07-29 06:26:38 51°15.937 2°53.632 0.7 256 16.7 101590 61
2009-07-29 06:26:44 51°15.954 2°53.618 0.8 53 16.7 101590 61
2009-07-29 06:26:48 51°15.966 2°53.609 0.6 23 16.7 101600 61
2009-07-29 06:26:53 51°15.98 2°53.597 0.7 56 16.7 101600 61
2009-07-29 06:26:59 51°15.998 2°53.583 0.7 19 16.7 101590 61
2009-07-29 06:27:04 51°16.012 2°53.571 0.5 55 16.7 101590 61
2009-07-29 06:27:08 51°16.024 2°53.562 0.7 36 16.7 101590 61
2009-07-29 06:27:13 51°16.038 2°53.55 0.6 21 16.7 101590 61
2009-07-29 06:27:18 51°16.053 2°53.539 0.7 24 16.7 101590 61
2009-07-29 06:27:24 51°16.07 2°53.524 0.6 28 16.7 101590 61
2009-07-29 06:27:28 51°16.082 2°53.515 0.7 30 16.7 101590 62
2009-07-29 06:27:32 51°16.094 2°53.505 0.7 30 16.7 101590 62
2009-07-29 06:27:38 51°16.111 2°53.491 0.7 30 16.7 101590 62
2009-07-29 06:27:44 51°16.128 2°53.477 1 34 16.7 101590 62
2009-07-29 06:27:48 51°16.14 2°53.467 0.9 34 16.7 101590 62
2009-07-29 06:27:53 51°16.155 2°53.456 1.2 38 16.7 101590 62
2009-07-29 06:27:58 51°16.169 2°53.444 1.2 38 16.7 101590 62
2009-07-29 06:28:04 51°16.187 2°53.43 1.1 37 16.7 101590 62
2009-07-29 06:28:08 51°16.198 2°53.421 1.1 37 16.8 101590 62
2009-07-29 06:28:13 51°16.213 2°53.409 1.7 40 16.8 101590 62
2009-07-29 06:28:18 51°16.228 2°53.398 1.4 43 16.8 101590 62
2009-07-29 06:28:23 51°16.243 2°53.387 1.3 43 16.8 101590 62
2009-07-29 06:28:28 51°16.257 2°53.375 1.4 43 16.8 101590 62
2009-07-29 06:28:33 51°16.272 2°53.364 1.4 40 16.8 101590 62
2009-07-29 06:28:38 51°16.287 2°53.352 1.5 40 16.8 101580 62
2009-07-29 06:28:44 51°16.304 2°53.337 1.6 38 16.8 101580 62
2009-07-29 06:28:49 51°16.319 2°53.326 1.9 38 16.8 101590 62
2009-07-29 06:28:53 51°16.331 2°53.317 1.6 42 16.8 101590 62
2009-07-29 06:28:58 51°16.345 2°53.305 1.4 41 16.8 101580 61
2009-07-29 06:29:04 51°16.363 2°53.292 1.6 41 16.8 101580 61
2009-07-29 06:29:08 51°16.375 2°53.283 1.6 39 16.8 101590 61
2009-07-29 06:29:13 51°16.389 2°53.271 1.9 39 16.8 101590 61
2009-07-29 06:29:19 51°16.407 2°53.258 1.8 39 16.8 101580 61
2009-07-29 06:29:24 51°16.422 2°53.247 2.2 30 16.8 101580 61
2009-07-29 06:29:28 51°16.434 2°53.238 1.7 31 16.7 101580 61
2009-07-29 06:29:32 51°16.446 2°53.229 1.6 31 16.7 101580 61
2009-07-29 06:29:38 51°16.464 2°53.215 1.7 29 16.7 101580 61
2009-07-29 06:29:44 51°16.481 2°53.201 1.5 35 16.7 101580 61
2009-07-29 06:29:48 51°16.493 2°53.192 1.8 35 16.7 101580 61
2009-07-29 06:29:52 51°16.505 2°53.182 1.6 36 16.7 101580 61
2009-07-29 06:29:58 51°16.522 2°53.168 1.4 41 16.7 101580 61
2009-07-29 06:30:04 51°16.54 2°53.153 1.3 38 16.7 101580 61
2009-07-29 06:30:08 51°16.551 2°53.144 1.5 44 16.7 101580 60
2009-07-29 06:30:13 51°16.566 2°53.132 1.3 43 16.7 101580 60
2009-07-29 06:30:19 51°16.583 2°53.117 1.4 44 16.7 101580 60
2009-07-29 06:30:24 51°16.597 2°53.106 1.3 44 16.7 101580 60
2009-07-29 06:30:28 51°16.609 2°53.096 1.3 43 16.7 101580 60
2009-07-29 06:30:33 51°16.623 2°53.084 1.1 40 16.7 101580 60
2009-07-29 06:30:38 51°16.638 2°53.073 0.7 42 16.7 101580 61
2009-07-29 06:30:44 51°16.656 2°53.059 0.5 40 16.7 101580 61
2009-07-29 06:30:48 51°16.667 2°53.049 0.6 28 16.7 101590 61
2009-07-29 06:30:53 51°16.682 2°53.037 0.8 58 16.7 101590 61
2009-07-29 06:30:58 51°16.696 2°53.025 1 26 16.7 101580 61
2009-07-29 06:31:04 51°16.713 2°53.011 1 304 16.7 101580 61
2009-07-29 06:31:08 51°16.725 2°53.001 1.8 25 16.6 101580 61
2009-07-29 06:31:12 51°16.737 2°52.992 1.6 304 16.6 101580 61
2009-07-29 06:31:18 51°16.754 2°52.977 1.5 261 16.6 101590 60
2009-07-29 06:31:23 51°16.768 2°52.966 1.4 308 16.6 101590 60
2009-07-29 06:31:28 51°16.783 2°52.953 2.1 254 16.6 101590 61
2009-07-29 06:31:33 51°16.797 2°52.942 2.2 304 16.6 101590 61
2009-07-29 06:31:39 51°16.815 2°52.927 3 247 16.7 101590 61
2009-07-29 06:31:44 51°16.829 2°52.915 3 309 16.7 101590 61
2009-07-29 06:31:48 51°16.841 2°52.905 2.8 260 16.7 101590 61
2009-07-29 06:31:53 51°16.855 2°52.893 2.4 309 16.7 101590 61
2009-07-29 06:31:59 51°16.872 2°52.878 2.6 256 16.7 101590 61
2009-07-29 06:32:04 51°16.886 2°52.866 3.1 305 16.7 101590 61
2009-07-29 06:32:08 51°16.898 2°52.856 2 259 16.7 101590 60
2009-07-29 06:32:13 51°16.912 2°52.844 1.7 302 16.7 101590 60
2009-07-29 06:32:18 51°16.927 2°52.832 1.3 263 16.7 101590 61
2009-07-29 06:32:24 51°16.944 2°52.817 1.5 277 16.7 101590 61
2009-07-29 06:32:28 51°16.956 2°52.808 0.9 267 16.7 101590 61
2009-07-29 06:32:33 51°16.971 2°52.796 0.8 304 16.7 101590 61
2009-07-29 06:32:38 51°16.985 2°52.784 1.3 22 16.7 101590 62
2009-07-29 06:32:44 51°17.003 2°52.769 1.1 59 16.7 101590 62
2009-07-29 06:32:48 51°17.015 2°52.76 1 22 16.7 101590 62
2009-07-29 06:32:53 51°17.03 2°52.749 1.4 59 16.7 101590 62
2009-07-29 06:32:58 51°17.045 2°52.737 1.1 26 16.7 101590 61
2009-07-29 06:33:03 51°17.06 2°52.725 1.1 57 16.7 101590 61
2009-07-29 06:33:08 51°17.074 2°52.713 1 29 16.7 101590 61
2009-07-29 06:33:13 51°17.089 2°52.701 1.5 53 16.7 101590 61
2009-07-29 06:33:19 51°17.107 2°52.687 1.8 28 16.7 101580 60
2009-07-29 06:33:23 51°17.119 2°52.677 1.1 45 16.7 101580 60
2009-07-29 06:33:28 51°17.134 2°52.665 1.9 45 16.7 101580 60
2009-07-29 06:33:33 51°17.149 2°52.654 1.7 57 16.7 101580 60
2009-07-29 06:33:39 51°17.167 2°52.64 1.6 27 16.6 101590 53
2009-07-29 06:33:44 51°17.182 2°52.629 1.5 56 16.6 101590 53
2009-07-29 06:33:48 51°17.194 2°52.619 1.5 27 16.7 101590 58
2009-07-29 06:33:53 51°17.209 2°52.608 1.7 55 16.7 101590 58
2009-07-29 06:33:58 51°17.223 2°52.595 1.4 21 16.6 101590 59
2009-07-29 06:34:04 51°17.241 2°52.581 1.4 58 16.6 101590 59
2009-07-29 06:34:08 51°17.253 2°52.572 1.7 20 16.6 101580 58
2009-07-29 06:34:12 51°17.266 2°52.564 2.1 41 16.6 101580 58
2009-07-29 06:34:18 51°17.285 2°52.555 2.3 27 16.6 101590 59
2009-07-29 06:34:24 51°17.304 2°52.545 2.3 38 16.6 101590 59
2009-07-29 06:34:28 51°17.317 2°52.541 2.3 40 16.6 101590 59
2009-07-29 06:34:32 51°17.33 2°52.535 2.5 34 16.6 101590 59
2009-07-29 06:34:38 51°17.35 2°52.53 2.1 35 16.6 101590 58
2009-07-29 06:34:44 51°17.37 2°52.524 2.9 30 16.6 101590 58
2009-07-29 06:34:48 51°17.383 2°52.524 3.5 31 16.6 101590 58
2009-07-29 06:34:53 51°17.4 2°52.523 2.6 29 16.6 101590 58
2009-07-29 06:34:58 51°17.417 2°52.523 3.4 27 16.6 101590 57
2009-07-29 06:35:04 51°17.437 2°52.523 2.7 18 16.6 101590 57
2009-07-29 06:35:08 51°17.451 2°52.524 3.7 22 16.7 101590 59
2009-07-29 06:35:12 51°17.464 2°52.527 3.4 17 16.7 101590 59
2009-07-29 06:35:18 51°17.485 2°52.53 4.9 16 16.7 101590 59
2009-07-29 06:35:24 51°17.504 2°52.539 4.8 14 16.7 101590 59
2009-07-29 06:35:28 51°17.517 2°52.546 5.9 12 16.7 101590 59
2009-07-29 06:35:32 51°17.529 2°52.554 6.4 14 16.7 101590 59
2009-07-29 06:35:38 51°17.547 2°52.569 5.7 7 16.7 101590 59
2009-07-29 06:35:43 51°17.563 2°52.581 6 5 16.7 101590 59
2009-07-29 06:35:48 51°17.577 2°52.595 4.5 5 16.8 101580 59
2009-07-29 06:35:53 51°17.593 2°52.608 7.6 7 16.8 101580 59
2009-07-29 06:35:59 51°17.61 2°52.626 6.7 6 16.8 101580 60
2009-07-29 06:36:04 51°17.625 2°52.641 7.3 7 16.8 101580 60
2009-07-29 06:36:08 51°17.636 2°52.653 7.4 8 16.9 101580 61
2009-07-29 06:36:13 51°17.651 2°52.668 8.1 7 16.9 101580 61
2009-07-29 06:36:19 51°17.668 2°52.687 7.3 4 16.9 101580 60
2009-07-29 06:36:24 51°17.683 2°52.703 6.5 5 16.9 101580 60
2009-07-29 06:36:28 51°17.694 2°52.716 7 7 16.9 101580 59
2009-07-29 06:36:32 51°17.704 2°52.73 7 6 16.9 101580 59
2009-07-29 06:36:38 51°17.721 2°52.75 6.8 3 16.9 101570 59
2009-07-29 06:36:44 51°17.737 2°52.772 6.5 1 16.9 101570 59
2009-07-29 06:36:48 51°17.748 2°52.786 7.5 -999 16.9 101570 60
2009-07-29 06:36:52 51°17.758 2°52.801 6.9 3 16.9 101570 60
2009-07-29 06:36:58 51°17.774 2°52.823 6.7 4 16.8 101570 58
2009-07-29 06:37:04 51°17.789 2°52.846 6.8 4 16.8 101570 58
2009-07-29 06:37:08 51°17.8 2°52.86 8.1 1 16.9 101580 61
2009-07-29 06:37:12 51°17.81 2°52.876 7.5 2 16.9 101580 61
2009-07-29 06:37:18 51°17.826 2°52.898 8.5 1 16.9 101580 60
2009-07-29 06:37:24 51°17.841 2°52.921 8.4 2 16.9 101580 60
2009-07-29 06:37:28 51°17.852 2°52.936 8 1 16.9 101570 60
2009-07-29 06:37:33 51°17.864 2°52.955 7.9 2 16.9 101570 60
2009-07-29 06:37:39 51°17.88 2°52.979 8.7 -999 16.9 101570 60
2009-07-29 06:37:43 51°17.89 2°52.994 7.4 -999 16.9 101570 60
2009-07-29 06:37:48 51°17.902 2°53.013 8.6 1 16.9 101570 60
2009-07-29 06:37:53 51°17.915 2°53.033 9.1 1 16.9 101570 60
2009-07-29 06:37:59 51°17.93 2°53.056 9.2 1 16.9 101570 59
2009-07-29 06:38:04 51°17.943 2°53.076 9 1 16.9 101570 59
2009-07-29 06:38:08 51°17.953 2°53.092 8.4 2 16.9 101570 61
2009-07-29 06:38:12 51°17.963 2°53.107 7.2 2 16.9 101570 61
2009-07-29 06:38:18 51°17.978 2°53.13 6.6 359 16.9 101570 60
2009-07-29 06:38:24 51°17.994 2°53.153 8 3 16.9 101570 60
2009-07-29 06:38:28 51°18.004 2°53.169 8.1 1 16.9 101570 59
2009-07-29 06:38:32 51°18.014 2°53.184 8.2 2 16.9 101570 59
2009-07-29 06:38:38 51°18.03 2°53.207 7 -999 16.9 101570 60
2009-07-29 06:38:44 51°18.045 2°53.23 7.1 2 16.9 101570 60
2009-07-29 06:38:48 51°18.055 2°53.246 8.7 -999 16.9 101580 59
2009-07-29 06:38:53 51°18.068 2°53.265 8.7 358 16.9 101580 59
2009-07-29 06:38:59 51°18.083 2°53.288 7.3 2 17 101580 58
2009-07-29 06:39:04 51°18.096 2°53.307 8 2 17 101580 58
2009-07-29 06:39:08 51°18.106 2°53.323 7.8 1 16.9 101580 59
2009-07-29 06:39:13 51°18.118 2°53.342 9.2 359 16.9 101580 59
2009-07-29 06:39:18 51°18.131 2°53.361 9.1 360 17 101580 57
2009-07-29 06:39:24 51°18.147 2°53.384 8.3 1 17 101580 57
2009-07-29 06:39:28 51°18.157 2°53.4 9.7 -999 17 101570 56
2009-07-29 06:39:32 51°18.167 2°53.415 8.2 -999 17 101570 56
2009-07-29 06:39:38 51°18.182 2°53.438 7.8 1 17 101570 54
2009-07-29 06:39:44 51°18.197 2°53.462 7.9 359 17 101570 54
2009-07-29 06:39:48 51°18.208 2°53.477 7.9 360 16.9 101580 54
2009-07-29 06:39:52 51°18.218 2°53.492 8 358 16.9 101580 54
2009-07-29 06:39:58 51°18.233 2°53.515 9.4 357 16.9 101570 55
2009-07-29 06:40:04 51°18.249 2°53.538 7.4 2 16.9 101570 55
2009-07-29 06:40:08 51°18.259 2°53.553 9.2 -999 16.9 101570 56
2009-07-29 06:40:13 51°18.271 2°53.572 8.3 1 16.9 101570 56
2009-07-29 06:40:19 51°18.287 2°53.595 7.7 2 16.9 101570 57
2009-07-29 06:40:24 51°18.3 2°53.614 7.4 -999 16.9 101570 57
2009-07-29 06:40:28 51°18.31 2°53.629 8.3 -999 16.9 101570 54
2009-07-29 06:40:33 51°18.322 2°53.649 8.2 359 16.9 101570 54
2009-07-29 06:40:39 51°18.337 2°53.673 7.3 -999 16.9 101570 55
2009-07-29 06:40:44 51°18.349 2°53.692 7 -999 16.9 101570 55
2009-07-29 06:40:48 51°18.359 2°53.708 5.6 360 16.9 101580 57
2009-07-29 06:40:54 51°18.374 2°53.731 6.5 358 16.9 101580 57
2009-07-29 06:40:58 51°18.384 2°53.747 6.2 356 17 101580 57
2009-07-29 06:41:04 51°18.399 2°53.77 7.1 358 17 101580 57
2009-07-29 06:41:08 51°18.409 2°53.786 6 357 16.9 101580 57
2009-07-29 06:41:13 51°18.422 2°53.806 8.2 360 16.9 101580 57
2009-07-29 06:41:19 51°18.436 2°53.83 6.7 -999 17 101580 54
2009-07-29 06:41:24 51°18.449 2°53.849 7.2 360 17 101580 54
2009-07-29 06:41:28 51°18.459 2°53.865 8.4 359 17 101590 57
2009-07-29 06:41:33 51°18.472 2°53.884 7.5 -999 17 101590 57
2009-07-29 06:41:39 51°18.487 2°53.907 8.5 357 17 101580 57
2009-07-29 06:41:44 51°18.499 2°53.927 7.8 359 17 101580 57
2009-07-29 06:41:48 51°18.509 2°53.942 8.1 360 17 101580 56
2009-07-29 06:41:53 51°18.522 2°53.961 8.2 358 17 101580 56
2009-07-29 06:41:58 51°18.534 2°53.981 8.8 357 17 101590 56
2009-07-29 06:42:04 51°18.549 2°54.004 8.4 358 17 101590 56
2009-07-29 06:42:08 51°18.559 2°54.02 8.8 358 17 101580 58
2009-07-29 06:42:13 51°18.572 2°54.04 9.4 358 17 101580 58
2009-07-29 06:42:18 51°18.584 2°54.06 7.6 358 17 101580 58
2009-07-29 06:42:24 51°18.599 2°54.084 8.3 359 17 101580 58
2009-07-29 06:42:28 51°18.608 2°54.099 8.4 357 16.9 101580 57
2009-07-29 06:42:32 51°18.618 2°54.115 7.4 359 16.9 101580 57
2009-07-29 06:42:38 51°18.633 2°54.138 8.7 356 16.9 101580 57
2009-07-29 06:42:43 51°18.645 2°54.158 8.2 355 16.9 101580 57
2009-07-29 06:42:48 51°18.657 2°54.178 8.9 356 16.9 101580 56
2009-07-29 06:42:53 51°18.67 2°54.198 8 355 16.9 101580 56
2009-07-29 06:42:59 51°18.685 2°54.221 7.9 357 17 101580 59
2009-07-29 06:43:04 51°18.697 2°54.24 8.4 356 17 101580 59
2009-07-29 06:43:08 51°18.708 2°54.256 8.6 357 17 101580 57
2009-07-29 06:43:14 51°18.722 2°54.279 8.3 356 17 101580 57
2009-07-29 06:43:19 51°18.735 2°54.298 7.4 357 17 101580 57
2009-07-29 06:43:24 51°18.747 2°54.318 8.4 355 17 101580 57
2009-07-29 06:43:28 51°18.757 2°54.334 7.2 357 16.9 101580 57
2009-07-29 06:43:33 51°18.77 2°54.353 7.9 356 16.9 101580 57
2009-07-29 06:43:38 51°18.782 2°54.373 7.1 357 16.9 101590 57
2009-07-29 06:43:43 51°18.794 2°54.392 6.8 356 16.9 101590 57
2009-07-29 06:43:48 51°18.807 2°54.411 8.1 356 16.9 101590 57
2009-07-29 06:43:53 51°18.819 2°54.431 6.6 356 16.9 101590 57
2009-07-29 06:43:58 51°18.832 2°54.45 7.5 357 16.9 101580 59
2009-07-29 06:44:04 51°18.847 2°54.473 6.6 355 16.9 101580 59
2009-07-29 06:44:08 51°18.857 2°54.488 7.8 356 17 101590 60
2009-07-29 06:44:12 51°18.867 2°54.504 7.5 358 17 101590 60
2009-07-29 06:44:18 51°18.882 2°54.527 7.2 356 17 101580 58
2009-07-29 06:44:24 51°18.897 2°54.55 6.7 358 17 101580 58
2009-07-29 06:44:28 51°18.907 2°54.565 6.2 356 17 101580 59
2009-07-29 06:44:32 51°18.918 2°54.581 6 356 17 101580 59
2009-07-29 06:44:38 51°18.933 2°54.603 7.4 358 17 101590 58
2009-07-29 06:44:43 51°18.945 2°54.623 7.4 356 17 101590 58
2009-07-29 06:44:48 51°18.958 2°54.642 6.8 358 17 101590 58
2009-07-29 06:44:52 51°18.968 2°54.658 7.2 358 17 101590 58
2009-07-29 06:44:58 51°18.983 2°54.681 7.7 357 17 101590 60
2009-07-29 06:45:03 51°18.995 2°54.7 6.9 -999 17 101590 60
2009-07-29 06:45:08 51°19.007 2°54.72 7 360 17 101590 60
2009-07-29 06:45:13 51°19.02 2°54.74 6.6 359 17 101590 60
2009-07-29 06:45:18 51°19.032 2°54.759 7.4 358 17 101590 59
2009-07-29 06:45:24 51°19.046 2°54.783 6.5 358 17 101590 59
2009-07-29 06:45:29 51°19.059 2°54.804 6.2 359 17 101580 59
2009-07-29 06:45:33 51°19.068 2°54.819 6.6 358 17 101580 59
2009-07-29 06:45:38 51°19.081 2°54.839 6.5 360 17 101590 59
2009-07-29 06:45:43 51°19.093 2°54.859 6.6 358 17 101590 59
2009-07-29 06:45:48 51°19.106 2°54.878 6.7 359 17 101590 59
2009-07-29 06:45:53 51°19.118 2°54.898 5.7 358 17 101590 59
2009-07-29 06:45:59 51°19.133 2°54.921 7 359 17 101590 60
2009-07-29 06:46:04 51°19.146 2°54.941 5.8 355 17 101590 60
2009-07-29 06:46:08 51°19.155 2°54.956 6.1 359 17.1 101590 59
2009-07-29 06:46:13 51°19.167 2°54.977 5.4 360 17.1 101590 59
2009-07-29 06:46:18 51°19.18 2°54.997 5.8 1 17.1 101590 59
2009-07-29 06:46:24 51°19.195 2°55.02 5.5 358 17.1 101590 59
2009-07-29 06:46:29 51°19.207 2°55.04 5.9 358 17 101590 60
2009-07-29 06:46:33 51°19.217 2°55.056 6.1 357 17 101590 60
2009-07-29 06:46:38 51°19.23 2°55.076 6.4 359 17.1 101590 60
2009-07-29 06:46:44 51°19.245 2°55.101 7.4 356 17.1 101590 60
2009-07-29 06:46:49 51°19.257 2°55.12 7.2 360 17.1 101590 60
2009-07-29 06:46:53 51°19.267 2°55.136 8 356 17.1 101590 60
2009-07-29 06:46:58 51°19.28 2°55.155 8.3 358 17.2 101590 59
2009-07-29 06:47:03 51°19.292 2°55.174 8.2 357 17.2 101590 59
2009-07-29 06:47:09 51°19.308 2°55.197 8.2 358 17.1 101590 60
2009-07-29 06:47:14 51°19.32 2°55.217 8.1 359 17.1 101590 60
2009-07-29 06:47:18 51°19.33 2°55.232 9.3 359 17.1 101580 60
2009-07-29 06:47:24 51°19.345 2°55.255 8.2 358 17.1 101580 60
2009-07-29 06:47:28 51°19.355 2°55.271 9.1 357 17.1 101580 60
2009-07-29 06:47:33 51°19.367 2°55.29 8 358 17.1 101580 60
2009-07-29 06:47:38 51°19.379 2°55.31 9.6 359 17.1 101580 60
2009-07-29 06:47:43 51°19.392 2°55.329 8.2 359 17.1 101580 60
2009-07-29 06:47:49 51°19.407 2°55.352 8.3 359 17.1 101580 59
2009-07-29 06:47:53 51°19.416 2°55.368 8.8 356 17.1 101580 59
2009-07-29 06:47:58 51°19.429 2°55.387 7.8 358 17.1 101580 59
2009-07-29 06:48:04 51°19.444 2°55.41 8.6 356 17.1 101580 59
2009-07-29 06:48:09 51°19.457 2°55.429 8.9 358 17.1 101570 58
2009-07-29 06:48:13 51°19.467 2°55.444 8.4 357 17.1 101570 58
2009-07-29 06:48:18 51°19.479 2°55.463 7.5 357 17.1 101570 59
2009-07-29 06:48:24 51°19.494 2°55.486 7.5 357 17.1 101570 59
2009-07-29 06:48:28 51°19.504 2°55.501 7.4 357 17.1 101580 60
2009-07-29 06:48:33 51°19.517 2°55.52 7.4 358 17.1 101580 60
2009-07-29 06:48:38 51°19.53 2°55.539 8.2 356 17.1 101580 61
2009-07-29 06:48:44 51°19.545 2°55.562 7.6 356 17.1 101580 61
2009-07-29 06:48:48 51°19.554 2°55.577 7.9 358 17.1 101580 60
2009-07-29 06:48:53 51°19.567 2°55.597 7.6 358 17.1 101580 60
2009-07-29 06:48:58 51°19.579 2°55.616 7.8 357 17.1 101570 61
2009-07-29 06:49:04 51°19.594 2°55.639 7.2 357 17.1 101570 61
2009-07-29 06:49:09 51°19.607 2°55.658 7 356 17.1 101580 60
2009-07-29 06:49:13 51°19.617 2°55.674 6.7 354 17.1 101580 60
2009-07-29 06:49:18 51°19.629 2°55.694 8 356 17.1 101570 62
2009-07-29 06:49:23 51°19.641 2°55.714 7.6 356 17.1 101570 62
2009-07-29 06:49:29 51°19.656 2°55.737 6.3 357 17.1 101580 61
2009-07-29 06:49:33 51°19.666 2°55.753 6.7 357 17.1 101580 61
2009-07-29 06:49:38 51°19.678 2°55.773 7.6 356 17.1 101580 62
2009-07-29 06:49:44 51°19.692 2°55.797 7.9 357 17.1 101580 62
2009-07-29 06:49:48 51°19.702 2°55.813 6.9 357 17.1 101570 61
2009-07-29 06:49:53 51°19.714 2°55.833 6.8 356 17.1 101570 61
2009-07-29 06:49:58 51°19.727 2°55.852 7.3 356 17.1 101580 63
2009-07-29 06:50:04 51°19.742 2°55.876 7.3 357 17.1 101580 63
2009-07-29 06:50:08 51°19.752 2°55.891 6.7 357 17.1 101580 63
2009-07-29 06:50:13 51°19.764 2°55.911 7.2 358 17.1 101580 63
2009-07-29 06:50:18 51°19.777 2°55.93 6.5 356 17.1 101580 61
2009-07-29 06:50:24 51°19.792 2°55.953 7.1 357 17.1 101580 61
2009-07-29 06:50:29 51°19.805 2°55.972 5.9 359 17 101580 62
2009-07-29 06:50:33 51°19.815 2°55.987 6.7 357 17 101580 62
2009-07-29 06:50:38 51°19.827 2°56.007 5.5 354 17 101580 61
2009-07-29 06:50:43 51°19.841 2°56.026 6.1 1 17 101580 61
2009-07-29 06:50:48 51°19.853 2°56.045 5.9 -999 17 101580 63
2009-07-29 06:50:53 51°19.866 2°56.064 5.7 356 17 101580 63
2009-07-29 06:50:58 51°19.878 2°56.084 6.4 359 17 101580 62
2009-07-29 06:51:04 51°19.893 2°56.106 6.6 357 17 101580 62
2009-07-29 06:51:08 51°19.903 2°56.122 5.7 355 17 101580 56
2009-07-29 06:51:13 51°19.915 2°56.141 6.8 352 17 101580 56
2009-07-29 06:51:18 51°19.928 2°56.161 7.3 355 17 101580 61
2009-07-29 06:51:24 51°19.943 2°56.184 7 358 17 101580 61
2009-07-29 06:51:29 51°19.955 2°56.203 6.2 1 17 101580 61
2009-07-29 06:51:33 51°19.965 2°56.219 6.5 1 17 101580 61
2009-07-29 06:51:38 51°19.977 2°56.238 7.7 355 17.1 101580 61
2009-07-29 06:51:43 51°19.99 2°56.258 7.5 358 17.1 101580 61
2009-07-29 06:51:49 51°20.005 2°56.28 7.4 357 17.1 101580 61
2009-07-29 06:51:53 51°20.015 2°56.296 7.8 356 17.1 101580 61
2009-07-29 06:51:58 51°20.027 2°56.315 9 355 17.1 101580 61
2009-07-29 06:52:03 51°20.04 2°56.334 8.5 357 17.1 101580 61
2009-07-29 06:52:08 51°20.052 2°56.353 8.5 356 17 101580 62
2009-07-29 06:52:13 51°20.065 2°56.373 8.3 357 17 101580 62
2009-07-29 06:52:18 51°20.077 2°56.392 8.7 357 17.1 101570 61
2009-07-29 06:52:23 51°20.089 2°56.411 7.7 357 17.1 101570 61
2009-07-29 06:52:28 51°20.102 2°56.43 7.6 356 17.1 101570 62
2009-07-29 06:52:33 51°20.114 2°56.449 7.5 357 17.1 101570 62
2009-07-29 06:52:38 51°20.127 2°56.468 7 354 17 101570 61
2009-07-29 06:52:43 51°20.139 2°56.487 7.3 354 17 101570 61
2009-07-29 06:52:49 51°20.154 2°56.51 8.4 358 17 101570 62
2009-07-29 06:52:53 51°20.164 2°56.526 6.8 358 17 101570 62
2009-07-29 06:52:57 51°20.174 2°56.541 7 357 17 101570 62
2009-07-29 06:53:03 51°20.189 2°56.564 7 355 17 101570 62
2009-07-29 06:53:09 51°20.204 2°56.587 8.1 354 17.1 101570 63
2009-07-29 06:53:13 51°20.213 2°56.604 7.8 356 17.1 101570 63
2009-07-29 06:53:18 51°20.225 2°56.623 7.3 357 17 101570 61
2009-07-29 06:53:23 51°20.237 2°56.643 6.9 359 17 101570 61
2009-07-29 06:53:28 51°20.25 2°56.663 6.8 357 17 101580 62
2009-07-29 06:53:33 51°20.262 2°56.683 7.6 357 17 101580 62
2009-07-29 06:53:38 51°20.274 2°56.703 7.4 357 17 101580 61
2009-07-29 06:53:44 51°20.288 2°56.727 7.5 357 17 101580 61
2009-07-29 06:53:49 51°20.3 2°56.747 7.5 356 17 101580 62
2009-07-29 06:53:53 51°20.31 2°56.762 6.1 358 17 101580 62
2009-07-29 06:53:58 51°20.322 2°56.783 5.8 355 17 101580 62
2009-07-29 06:54:03 51°20.334 2°56.803 6.3 352 17 101580 62
2009-07-29 06:54:09 51°20.348 2°56.827 6.5 357 17 101580 63
2009-07-29 06:54:13 51°20.358 2°56.842 7.1 357 17 101580 63
2009-07-29 06:54:18 51°20.37 2°56.862 7 356 17 101590 63
2009-07-29 06:54:22 51°20.38 2°56.878 6.6 358 17 101590 63
2009-07-29 06:54:28 51°20.395 2°56.902 6.6 357 17.1 101580 62
2009-07-29 06:54:33 51°20.407 2°56.922 6.8 356 17.1 101580 62
2009-07-29 06:54:38 51°20.419 2°56.942 5.7 355 17 101580 62
2009-07-29 06:54:43 51°20.431 2°56.962 6.8 358 17 101580 62
2009-07-29 06:54:48 51°20.443 2°56.983 5.6 353 17 101590 62
2009-07-29 06:54:53 51°20.455 2°57.002 6.1 357 17 101590 62
2009-07-29 06:54:58 51°20.467 2°57.022 6.1 355 17 101590 62
2009-07-29 06:55:03 51°20.48 2°57.042 6.2 358 17 101590 62
2009-07-29 06:55:09 51°20.494 2°57.065 6.9 357 17 101590 62
2009-07-29 06:55:13 51°20.504 2°57.081 7.9 357 17 101590 62
2009-07-29 06:55:17 51°20.514 2°57.097 7.6 357 17.1 101590 64
2009-07-29 06:55:23 51°20.529 2°57.12 6.8 359 17.1 101590 64
2009-07-29 06:55:29 51°20.544 2°57.144 6.7 356 17 101580 62
2009-07-29 06:55:33 51°20.553 2°57.159 8.4 357 17 101580 62
2009-07-29 06:55:37 51°20.563 2°57.175 8.1 356 17 101580 64
2009-07-29 06:55:43 51°20.578 2°57.198 8.1 357 17 101580 64
2009-07-29 06:55:48 51°20.59 2°57.218 8 356 17 101580 63
2009-07-29 06:55:53 51°20.603 2°57.237 7.2 356 17 101580 63
2009-07-29 06:55:58 51°20.616 2°57.255 8.7 358 17 101580 62
2009-07-29 06:56:03 51°20.628 2°57.275 6.9 358 17 101580 62
2009-07-29 06:56:08 51°20.641 2°57.293 8.5 359 17 101580 62
2009-07-29 06:56:13 51°20.653 2°57.313 8.2 356 17 101580 62
2009-07-29 06:56:18 51°20.666 2°57.331 6.9 358 17 101580 63
2009-07-29 06:56:23 51°20.678 2°57.351 7.7 357 17 101580 63
2009-07-29 06:56:29 51°20.693 2°57.374 8.2 -999 17 101570 64
2009-07-29 06:56:33 51°20.703 2°57.389 7.4 356 17 101570 64
2009-07-29 06:56:38 51°20.716 2°57.408 7.2 358 17 101580 64
2009-07-29 06:56:43 51°20.727 2°57.428 7.7 359 17 101580 64
2009-07-29 06:56:48 51°20.74 2°57.447 8.4 359 17.1 101580 64
2009-07-29 06:56:53 51°20.752 2°57.467 8.2 358 17.1 101580 64
2009-07-29 06:56:58 51°20.765 2°57.487 7.3 358 17.1 101580 65
2009-07-29 06:57:04 51°20.779 2°57.511 6.8 357 17.1 101580 65
2009-07-29 06:57:08 51°20.789 2°57.526 8.1 357 17 101580 64
2009-07-29 06:57:13 51°20.801 2°57.546 8.1 356 17 101580 64
2009-07-29 06:57:18 51°20.813 2°57.566 7.8 359 17 101580 63
2009-07-29 06:57:23 51°20.825 2°57.586 7.5 360 17 101580 63
2009-07-29 06:57:28 51°20.838 2°57.605 6.9 355 17 101580 64
2009-07-29 06:57:33 51°20.85 2°57.625 6.1 359 17 101580 64
2009-07-29 06:57:38 51°20.863 2°57.643 6.1 360 17 101580 64
2009-07-29 06:57:43 51°20.875 2°57.662 6.1 358 17 101580 64
2009-07-29 06:57:49 51°20.891 2°57.683 6.7 359 17 101580 64
2009-07-29 06:57:53 51°20.902 2°57.698 6 1 17 101580 64
2009-07-29 06:57:57 51°20.913 2°57.711 5.6 1 17 101580 65
2009-07-29 06:58:03 51°20.929 2°57.732 5.9 -999 17 101580 65
2009-07-29 06:58:08 51°20.943 2°57.749 4.8 1 17.1 101590 63
2009-07-29 06:58:13 51°20.957 2°57.765 6.2 1 17.1 101590 63
2009-07-29 06:58:18 51°20.971 2°57.782 5 -999 17 101590 65
2009-07-29 06:58:23 51°20.985 2°57.798 5 3 17 101590 65
2009-07-29 06:58:28 51°20.999 2°57.814 4.6 357 17 101590 65
2009-07-29 06:58:33 51°21.013 2°57.83 5.3 2 17 101590 65
2009-07-29 06:58:38 51°21.027 2°57.846 4.3 3 17.1 101590 66
2009-07-29 06:58:43 51°21.041 2°57.862 4.1 1 17.1 101590 66
2009-07-29 06:58:49 51°21.058 2°57.881 4.9 3 17.1 101590 66
2009-07-29 06:58:53 51°21.07 2°57.894 4.5 -999 17.1 101590 66
2009-07-29 06:58:58 51°21.084 2°57.91 5 -999 17.1 101590 65
2009-07-29 06:59:03 51°21.098 2°57.927 4.5 358 17.1 101590 65
2009-07-29 06:59:08 51°21.112 2°57.942 5 358 17.1 101590 66
2009-07-29 06:59:13 51°21.126 2°57.959 6.1 360 17.1 101590 66
2009-07-29 06:59:18 51°21.14 2°57.975 5.4 357 17.1 101590 64
2009-07-29 06:59:23 51°21.154 2°57.991 7.1 360 17.1 101590 64
2009-07-29 06:59:29 51°21.171 2°58.01 4.4 1 17.1 101590 66
2009-07-29 06:59:33 51°21.183 2°58.023 7.2 1 17.1 101590 66
2009-07-29 06:59:38 51°21.197 2°58.04 6.9 360 17.1 101590 66
2009-07-29 06:59:43 51°21.211 2°58.056 6.9 360 17.1 101590 66
2009-07-29 06:59:48 51°21.225 2°58.072 7.3 1 17.1 101590 66
2009-07-29 06:59:53 51°21.239 2°58.089 6.8 360 17.1 101590 66
2009-07-29 06:59:58 51°21.253 2°58.105 6 -999 17.1 101590 64
2009-07-29 07:00:03 51°21.267 2°58.122 7 -999 17.1 101590 64
2009-07-29 07:00:08 51°21.281 2°58.138 7.4 360 17.1 101580 65
2009-07-29 07:00:13 51°21.294 2°58.155 6.8 3 17.1 101580 65
2009-07-29 07:00:18 51°21.308 2°58.171 7.4 1 17.1 101580 65
2009-07-29 07:00:23 51°21.322 2°58.188 6.4 2 17.1 101580 65
2009-07-29 07:00:28 51°21.336 2°58.204 6.5 1 17.1 101580 66
2009-07-29 07:00:33 51°21.35 2°58.221 6.2 1 17.1 101580 66
2009-07-29 07:00:38 51°21.364 2°58.237 6.7 2 17.1 101580 66
2009-07-29 07:00:42 51°21.375 2°58.25 7.3 2 17.1 101580 66
2009-07-29 07:00:49 51°21.395 2°58.273 6 359 17.1 101580 66
2009-07-29 07:00:53 51°21.406 2°58.287 6.8 360 17.1 101580 66
2009-07-29 07:00:58 51°21.42 2°58.303 6.2 2 17.1 101580 65
2009-07-29 07:01:03 51°21.433 2°58.32 6.5 1 17.1 101580 65
2009-07-29 07:01:08 51°21.447 2°58.336 3.3 1 17.1 101580 65
2009-07-29 07:01:13 51°21.461 2°58.353 7 360 17.1 101580 65
2009-07-29 07:01:18 51°21.475 2°58.369 6.2 -999 17.1 101580 66
2009-07-29 07:01:23 51°21.489 2°58.386 6.7 2 17.1 101580 66
2009-07-29 07:01:28 51°21.503 2°58.402 6.5 1 17.1 101580 66
2009-07-29 07:01:33 51°21.517 2°58.419 6.4 3 17.1 101580 66
2009-07-29 07:01:38 51°21.531 2°58.436 5.3 1 17.1 101580 62
2009-07-29 07:01:43 51°21.544 2°58.452 6.6 357 17.1 101580 62
2009-07-29 07:01:49 51°21.561 2°58.473 6.2 359 17.1 101580 62
2009-07-29 07:01:53 51°21.572 2°58.486 6.5 -999 17.1 101580 62
2009-07-29 07:01:58 51°21.586 2°58.503 6 -999 17 101580 63
2009-07-29 07:02:04 51°21.602 2°58.524 6.1 -999 17 101580 63
2009-07-29 07:02:08 51°21.613 2°58.537 5.6 -999 17 101580 65
2009-07-29 07:02:13 51°21.627 2°58.554 5.8 359 17 101580 65
2009-07-29 07:02:18 51°21.641 2°58.571 6 357 17 101590 65
2009-07-29 07:02:24 51°21.657 2°58.592 5.9 356 17 101590 65
2009-07-29 07:02:28 51°21.668 2°58.605 5.6 358 17 101580 66
2009-07-29 07:02:33 51°21.682 2°58.622 5.8 -999 17 101580 66
2009-07-29 07:02:38 51°21.696 2°58.639 5.7 357 17.1 101580 67
2009-07-29 07:02:44 51°21.713 2°58.66 6.2 352 17.1 101580 67
2009-07-29 07:02:49 51°21.727 2°58.677 6.2 354 17 101590 67
2009-07-29 07:02:53 51°21.738 2°58.69 6.9 2 17 101590 67
2009-07-29 07:02:58 51°21.751 2°58.708 6.4 1 17.1 101590 66
2009-07-29 07:03:03 51°21.765 2°58.725 6.7 357 17.1 101590 66
2009-07-29 07:03:08 51°21.779 2°58.742 6.9 359 17.1 101590 68
2009-07-29 07:03:13 51°21.793 2°58.759 7 359 17.1 101590 68
2009-07-29 07:03:18 51°21.807 2°58.776 7.8 357 17.1 101580 68
2009-07-29 07:03:24 51°21.823 2°58.797 8.3 359 17.1 101580 68
2009-07-29 07:03:28 51°21.834 2°58.81 8.2 357 17.1 101580 67
2009-07-29 07:03:33 51°21.848 2°58.827 7.8 -999 17.1 101580 67
2009-07-29 07:03:38 51°21.862 2°58.844 7.1 358 17.1 101580 66
2009-07-29 07:03:43 51°21.876 2°58.861 7.5 2 17.1 101580 66
2009-07-29 07:03:48 51°21.89 2°58.878 7.3 1 17.1 101580 67
2009-07-29 07:03:53 51°21.904 2°58.894 7.8 1 17.1 101580 67
2009-07-29 07:03:58 51°21.918 2°58.911 7.3 360 17.1 101580 66
2009-07-29 07:04:03 51°21.932 2°58.928 7.7 360 17.1 101580 66
2009-07-29 07:04:08 51°21.945 2°58.945 6.9 1 17.1 101580 67
2009-07-29 07:04:13 51°21.96 2°58.962 7.6 360 17.1 101580 67
2009-07-29 07:04:18 51°21.973 2°58.979 7.7 358 17.1 101580 66
2009-07-29 07:04:24 51°21.99 2°58.999 7.9 359 17.1 101580 66
2009-07-29 07:04:29 51°22.004 2°59.017 6.9 359 17 101580 66
2009-07-29 07:04:33 51°22.015 2°59.03 7 358 17 101580 66
2009-07-29 07:04:38 51°22.029 2°59.047 6.9 1 17 101580 66
2009-07-29 07:04:44 51°22.045 2°59.067 7.1 357 17 101580 66
2009-07-29 07:04:49 51°22.059 2°59.084 6.7 357 17 101580 65
2009-07-29 07:04:53 51°22.07 2°59.098 6.5 356 17 101580 65
2009-07-29 07:04:58 51°22.084 2°59.115 7.4 357 17 101580 66
2009-07-29 07:05:03 51°22.098 2°59.132 6.5 357 17 101580 66
2009-07-29 07:05:09 51°22.114 2°59.152 6.4 359 17 101580 66
2009-07-29 07:05:13 51°22.125 2°59.166 3.3 356 17 101580 66
2009-07-29 07:05:18 51°22.139 2°59.183 7.1 355 17 101580 66
2009-07-29 07:05:23 51°22.153 2°59.2 6.6 358 17 101580 66
2009-07-29 07:05:29 51°22.169 2°59.221 6.7 358 17 101580 67
2009-07-29 07:05:33 51°22.18 2°59.235 5.7 355 17 101580 67
2009-07-29 07:05:37 51°22.191 2°59.249 5.9 358 17 101580 67
2009-07-29 07:05:43 51°22.207 2°59.269 5.4 359 17 101580 67
2009-07-29 07:05:48 51°22.221 2°59.286 5 356 17 101580 66
2009-07-29 07:05:53 51°22.235 2°59.303 5.3 358 17 101580 66
2009-07-29 07:05:58 51°22.249 2°59.32 5.7 357 17 101580 65
2009-07-29 07:06:03 51°22.262 2°59.337 5.8 359 17 101580 65
2009-07-29 07:06:08 51°22.276 2°59.354 5.3 358 17 101590 67
2009-07-29 07:06:13 51°22.29 2°59.371 4.7 358 17 101590 67
2009-07-29 07:06:18 51°22.304 2°59.388 4.8 358 17 101590 66
2009-07-29 07:06:24 51°22.32 2°59.408 6 359 17 101590 66
2009-07-29 07:06:28 51°22.332 2°59.422 5.5 357 17.1 101590 68
2009-07-29 07:06:33 51°22.345 2°59.439 5.6 357 17.1 101590 68
2009-07-29 07:06:38 51°22.359 2°59.456 6 358 17.1 101590 68
2009-07-29 07:06:44 51°22.376 2°59.476 6.9 358 17.1 101590 68
2009-07-29 07:06:49 51°22.39 2°59.493 7.2 358 17.1 101590 67
2009-07-29 07:06:53 51°22.401 2°59.506 6.5 357 17.1 101590 67
2009-07-29 07:06:58 51°22.415 2°59.523 7.4 360 17.1 101590 67
2009-07-29 07:07:04 51°22.432 2°59.543 7.5 359 17.1 101590 67
2009-07-29 07:07:09 51°22.446 2°59.56 6.6 358 17.1 101580 68
2009-07-29 07:07:13 51°22.457 2°59.574 6.2 355 17.1 101580 68
2009-07-29 07:07:18 51°22.471 2°59.591 6.4 358 17.1 101580 68
2009-07-29 07:07:23 51°22.485 2°59.608 6.1 358 17.1 101580 68
2009-07-29 07:07:29 51°22.501 2°59.628 6.1 356 17 101580 67
2009-07-29 07:07:33 51°22.512 2°59.642 7 358 17 101580 67
2009-07-29 07:07:38 51°22.526 2°59.659 6.7 358 17 101580 67
2009-07-29 07:07:43 51°22.54 2°59.677 6.6 357 17 101580 67
2009-07-29 07:07:48 51°22.554 2°59.694 7.2 359 17 101590 68
2009-07-29 07:07:53 51°22.568 2°59.711 6.6 359 17 101590 68
2009-07-29 07:07:57 51°22.579 2°59.725 6.9 357 17 101590 68
2009-07-29 07:08:03 51°22.596 2°59.745 6.7 -999 17 101590 68
2009-07-29 07:08:09 51°22.612 2°59.766 6.8 1 17 101590 70
2009-07-29 07:08:13 51°22.623 2°59.78 7.1 -999 17 101590 70
2009-07-29 07:08:17 51°22.635 2°59.794 6.8 358 17.1 101580 70
2009-07-29 07:08:23 51°22.652 2°59.814 6.4 358 17.1 101580 70
2009-07-29 07:08:28 51°22.665 2°59.832 6.9 359 17 101580 71
2009-07-29 07:08:33 51°22.68 2°59.849 7.4 359 17 101580 71
2009-07-29 07:08:38 51°22.694 2°59.866 6.6 359 17 101590 71
2009-07-29 07:08:43 51°22.708 2°59.883 6.4 1 17 101590 71
2009-07-29 07:08:48 51°22.722 2°59.9 5.8 1 17 101580 72
2009-07-29 07:08:53 51°22.736 2°59.918 6.5 357 17 101580 72
2009-07-29 07:08:58 51°22.75 2°59.935 6.1 358 17 101580 71
2009-07-29 07:09:03 51°22.764 2°59.953 6.6 359 17 101580 71
2009-07-29 07:09:08 51°22.779 2°59.97 6.5 360 17 101580 71
2009-07-29 07:09:13 51°22.793 2°59.987 7.1 359 17 101580 71
2009-07-29 07:09:18 51°22.807 3°0.005 6.9 -999 17 101590 72
2009-07-29 07:09:24 51°22.824 3°0.026 7.5 359 17 101590 72
2009-07-29 07:09:28 51°22.835 3°0.04 6.6 360 17 101590 72
2009-07-29 07:09:33 51°22.849 3°0.057 6.3 1 17 101590 72
2009-07-29 07:09:38 51°22.863 3°0.075 6.7 359 17 101580 70
2009-07-29 07:09:42 51°22.875 3°0.089 5.9 3 17 101580 70
2009-07-29 07:09:49 51°22.895 3°0.113 6 3 17 101590 71
2009-07-29 07:09:53 51°22.906 3°0.127 6.8 359 17 101590 71
2009-07-29 07:09:58 51°22.92 3°0.145 7.1 -999 17 101580 71
2009-07-29 07:10:04 51°22.937 3°0.166 6.1 2 17 101580 71
2009-07-29 07:10:09 51°22.952 3°0.182 6 358 16.9 101580 71
2009-07-29 07:10:13 51°22.964 3°0.195 6.5 359 16.9 101580 71
2009-07-29 07:10:18 51°22.978 3°0.211 6.7 360 17 101580 70
2009-07-29 07:10:23 51°22.993 3°0.227 5.4 359 17 101580 70
2009-07-29 07:10:28 51°23.009 3°0.241 6.3 359 17 101580 71
2009-07-29 07:10:33 51°23.024 3°0.256 6.2 -999 17 101580 71
2009-07-29 07:10:38 51°23.04 3°0.271 6.2 1 17 101580 73
2009-07-29 07:10:43 51°23.055 3°0.285 5.5 1 17 101580 73
2009-07-29 07:10:48 51°23.07 3°0.3 5.5 358 17 101590 71
2009-07-29 07:10:53 51°23.086 3°0.313 5.6 358 17 101590 71
2009-07-29 07:10:58 51°23.102 3°0.328 6.1 357 17 101590 70
2009-07-29 07:11:03 51°23.118 3°0.342 5.5 358 17 101590 70
2009-07-29 07:11:09 51°23.136 3°0.359 5.6 359 17 101590 71
2009-07-29 07:11:13 51°23.149 3°0.37 6.1 357 17 101590 71
2009-07-29 07:11:18 51°23.165 3°0.384 5.9 358 17 101590 71
2009-07-29 07:11:23 51°23.181 3°0.397 5.1 358 17 101590 71
2009-07-29 07:11:29 51°23.2 3°0.414 5.7 358 17 101580 72
2009-07-29 07:11:33 51°23.212 3°0.426 5.4 357 17 101580 72
2009-07-29 07:11:38 51°23.228 3°0.44 6.2 358 17 101590 72
2009-07-29 07:11:43 51°23.244 3°0.454 5.6 359 17 101590 72
2009-07-29 07:11:49 51°23.263 3°0.471 5.7 355 17 101580 72
2009-07-29 07:11:53 51°23.275 3°0.482 5.1 357 17 101580 72
2009-07-29 07:11:57 51°23.288 3°0.493 4.9 357 17 101590 73
2009-07-29 07:12:03 51°23.307 3°0.51 5.4 354 17 101590 73
2009-07-29 07:12:08 51°23.323 3°0.523 5.6 356 17 101590 74
2009-07-29 07:12:13 51°23.339 3°0.536 4.8 2 17 101590 74
2009-07-29 07:12:18 51°23.355 3°0.546 4.3 3 17.1 101590 74
2009-07-29 07:12:23 51°23.372 3°0.554 4.5 2 17.1 101590 74
2009-07-29 07:12:28 51°23.388 3°0.562 4.3 1 17.1 101590 74
2009-07-29 07:12:33 51°23.405 3°0.569 4 -999 17.1 101590 74
2009-07-29 07:12:38 51°23.422 3°0.574 3.5 3 17.1 101590 72
2009-07-29 07:12:43 51°23.439 3°0.58 3.3 357 17.1 101590 72
2009-07-29 07:12:48 51°23.456 3°0.583 3.8 1 17 101590 73
2009-07-29 07:12:53 51°23.474 3°0.587 4 356 17 101590 73
2009-07-29 07:12:58 51°23.491 3°0.589 3.7 2 17 101590 73
2009-07-29 07:13:04 51°23.512 3°0.593 3.3 1 17 101590 73
2009-07-29 07:13:08 51°23.526 3°0.595 3.2 360 17 101590 73
2009-07-29 07:13:13 51°23.543 3°0.596 3.5 359 17 101590 73
2009-07-29 07:13:18 51°23.56 3°0.598 3.4 359 17 101590 73
2009-07-29 07:13:24 51°23.581 3°0.6 3.1 358 17 101590 73
2009-07-29 07:13:29 51°23.599 3°0.601 3.5 355 17.1 101590 74
2009-07-29 07:13:33 51°23.613 3°0.602 3.2 356 17.1 101590 74
2009-07-29 07:13:38 51°23.63 3°0.604 3.8 354 17 101590 74
2009-07-29 07:13:43 51°23.648 3°0.605 3.1 358 17 101590 74
2009-07-29 07:13:49 51°23.669 3°0.605 3.4 -999 17 101590 72
2009-07-29 07:13:53 51°23.682 3°0.605 2.6 356 17 101590 72
2009-07-29 07:13:58 51°23.7 3°0.602 3.3 360 17 101590 74
2009-07-29 07:14:03 51°23.717 3°0.602 2.4 356 17 101590 74
2009-07-29 07:14:09 51°23.738 3°0.599 2.7 358 17.1 101590 73
2009-07-29 07:14:13 51°23.751 3°0.597 2.7 357 17.1 101590 73
2009-07-29 07:14:18 51°23.768 3°0.594 2.5 358 17 101590 73
2009-07-29 07:14:23 51°23.785 3°0.592 2.3 357 17 101590 73
2009-07-29 07:14:29 51°23.806 3°0.588 2.4 357 17 101590 73
2009-07-29 07:14:33 51°23.819 3°0.586 2.1 357 17 101590 73
2009-07-29 07:14:38 51°23.836 3°0.582 2.1 358 17 101590 73
2009-07-29 07:14:43 51°23.853 3°0.578 2 353 17 101590 73
2009-07-29 07:14:49 51°23.873 3°0.572 2 355 17 101590 72
2009-07-29 07:14:53 51°23.887 3°0.568 1.6 354 17 101590 72
2009-07-29 07:14:58 51°23.903 3°0.563 1.5 354 17 101590 73
2009-07-29 07:15:03 51°23.92 3°0.558 1.5 355 17 101590 73
2009-07-29 07:15:08 51°23.936 3°0.552 1.5 349 17 101590 72
2009-07-29 07:15:13 51°23.953 3°0.546 1.8 355 17 101590 72
2009-07-29 07:15:18 51°23.969 3°0.54 1.7 353 17 101590 72
2009-07-29 07:15:24 51°23.989 3°0.533 1.6 277 17 101590 72
2009-07-29 07:15:28 51°24.002 3°0.528 1.7 352 17 101590 73
2009-07-29 07:15:33 51°24.019 3°0.522 1.6 353 17 101590 73
2009-07-29 07:15:38 51°24.035 3°0.516 1.6 353 17 101590 73
2009-07-29 07:15:44 51°24.055 3°0.507 1.5 353 17 101590 73
2009-07-29 07:15:49 51°24.071 3°0.501 1.9 352 17 101590 74
2009-07-29 07:15:53 51°24.084 3°0.497 1.9 352 17 101590 74
2009-07-29 07:15:58 51°24.101 3°0.49 1.7 358 17.1 101590 73
2009-07-29 07:16:04 51°24.12 3°0.482 1.4 352 17.1 101590 73
2009-07-29 07:16:09 51°24.137 3°0.475 1.4 353 17 101590 73
2009-07-29 07:16:13 51°24.15 3°0.469 1.5 352 17 101590 73
2009-07-29 07:16:18 51°24.166 3°0.462 1.6 348 17.1 101590 74
2009-07-29 07:16:23 51°24.183 3°0.455 1.6 349 17.1 101590 74
2009-07-29 07:16:29 51°24.203 3°0.447 1.5 352 17.1 101590 73
2009-07-29 07:16:33 51°24.216 3°0.442 1.2 356 17.1 101590 73
2009-07-29 07:16:38 51°24.232 3°0.435 1.3 356 17.1 101590 74
2009-07-29 07:16:43 51°24.249 3°0.429 1.5 353 17.1 101590 74
2009-07-29 07:16:49 51°24.269 3°0.421 1.7 357 17.1 101590 74
2009-07-29 07:16:53 51°24.282 3°0.416 1.5 357 17.1 101590 74
2009-07-29 07:16:57 51°24.295 3°0.411 1.8 358 17.1 101590 73
2009-07-29 07:17:03 51°24.316 3°0.406 1.7 355 17.1 101590 73
2009-07-29 07:17:09 51°24.336 3°0.4 2.1 357 17.1 101590 73
2009-07-29 07:17:13 51°24.35 3°0.397 1.6 357 17.1 101590 73
2009-07-29 07:17:18 51°24.367 3°0.392 1.6 356 17.1 101590 73
2009-07-29 07:17:23 51°24.384 3°0.388 1.8 353 17.1 101590 73
2009-07-29 07:17:28 51°24.401 3°0.384 2.1 1 17.1 101590 74
2009-07-29 07:17:33 51°24.418 3°0.382 1.9 360 17.1 101590 74
2009-07-29 07:17:38 51°24.435 3°0.378 2.1 1 17.1 101590 74
2009-07-29 07:17:44 51°24.456 3°0.376 2.7 360 17.1 101590 74
2009-07-29 07:17:48 51°24.469 3°0.374 2.4 358 17.1 101590 73
2009-07-29 07:17:53 51°24.487 3°0.372 2.3 359 17.1 101590 73
2009-07-29 07:17:58 51°24.504 3°0.37 2.3 354 17.1 101590 74
2009-07-29 07:18:04 51°24.525 3°0.368 2.8 1 17.1 101590 74
2009-07-29 07:18:09 51°24.542 3°0.367 2.1 -999 17.2 101590 75
2009-07-29 07:18:13 51°24.556 3°0.365 2.3 2 17.2 101590 75
2009-07-29 07:18:18 51°24.573 3°0.363 2.3 2 17.2 101600 73
2009-07-29 07:18:24 51°24.594 3°0.36 2.6 359 17.2 101600 73
2009-07-29 07:18:29 51°24.611 3°0.358 2.3 360 17.2 101590 74
2009-07-29 07:18:33 51°24.625 3°0.357 2.3 359 17.2 101590 74
2009-07-29 07:18:38 51°24.643 3°0.354 2.3 360 17.2 101590 73
2009-07-29 07:18:42 51°24.657 3°0.353 2.1 356 17.2 101590 73
2009-07-29 07:18:49 51°24.681 3°0.351 2.3 357 17.2 101590 73
2009-07-29 07:18:53 51°24.695 3°0.351 2.8 357 17.2 101590 73
2009-07-29 07:18:58 51°24.712 3°0.35 2.5 355 17.2 101590 73
2009-07-29 07:19:03 51°24.73 3°0.349 2.8 356 17.2 101590 73
2009-07-29 07:19:09 51°24.751 3°0.35 2.3 357 17.2 101590 73
2009-07-29 07:19:13 51°24.765 3°0.35 2.2 357 17.2 101590 73
2009-07-29 07:19:18 51°24.782 3°0.35 2.7 359 17.2 101590 72
2009-07-29 07:19:23 51°24.8 3°0.353 2.9 358 17.2 101590 72
2009-07-29 07:19:28 51°24.817 3°0.356 3 356 17.2 101590 72
2009-07-29 07:19:33 51°24.834 3°0.359 3.6 356 17.2 101590 72
2009-07-29 07:19:38 51°24.852 3°0.362 3.3 359 17.2 101590 73
2009-07-29 07:19:43 51°24.869 3°0.366 4 357 17.2 101590 73
2009-07-29 07:19:49 51°24.89 3°0.373 4.2 358 17.2 101590 74
2009-07-29 07:19:53 51°24.903 3°0.378 4.4 359 17.2 101590 74
2009-07-29 07:19:58 51°24.92 3°0.385 3.8 -999 17.3 101590 74
2009-07-29 07:20:04 51°24.94 3°0.394 4.1 355 17.3 101590 74
2009-07-29 07:20:08 51°24.954 3°0.401 3.8 357 17.3 101590 74
2009-07-29 07:20:13 51°24.97 3°0.41 4.5 359 17.3 101590 74
2009-07-29 07:20:18 51°24.986 3°0.421 4.8 358 17.3 101590 73
2009-07-29 07:20:24 51°25.005 3°0.435 4.6 354 17.3 101590 73
2009-07-29 07:20:28 51°25.017 3°0.446 4.4 358 17.3 101590 73
2009-07-29 07:20:33 51°25.032 3°0.46 6 356 17.3 101590 73
2009-07-29 07:20:38 51°25.046 3°0.475 5.2 357 17.3 101590 72
2009-07-29 07:20:44 51°25.063 3°0.494 5.3 357 17.3 101590 72
2009-07-29 07:20:49 51°25.077 3°0.512 5.6 354 17.3 101590 73
2009-07-29 07:20:53 51°25.087 3°0.525 6.8 355 17.3 101590 73
2009-07-29 07:20:58 51°25.1 3°0.544 6.6 355 17.3 101590 73
2009-07-29 07:21:04 51°25.116 3°0.566 6 355 17.3 101590 73
2009-07-29 07:21:09 51°25.128 3°0.585 6.5 353 17.3 101590 72
2009-07-29 07:21:13 51°25.138 3°0.601 6.9 354 17.3 101590 72
2009-07-29 07:21:18 51°25.149 3°0.622 7.7 355 17.3 101580 72
2009-07-29 07:21:23 51°25.16 3°0.643 7.4 353 17.3 101580 72
2009-07-29 07:21:28 51°25.171 3°0.665 7.6 349 17.4 101580 72
2009-07-29 07:21:33 51°25.182 3°0.687 6.6 347 17.4 101580 72
2009-07-29 07:21:38 51°25.192 3°0.709 7.6 351 17.4 101580 72
2009-07-29 07:21:43 51°25.202 3°0.731 6.3 351 17.4 101580 72
2009-07-29 07:21:48 51°25.212 3°0.754 7.9 353 17.4 101580 72
2009-07-29 07:21:53 51°25.221 3°0.777 8.2 348 17.4 101580 72
2009-07-29 07:21:58 51°25.23 3°0.801 8.7 352 17.5 101590 71
2009-07-29 07:22:04 51°25.239 3°0.831 7.2 349 17.5 101590 71
2009-07-29 07:22:08 51°25.245 3°0.85 7.9 351 17.4 101580 71
2009-07-29 07:22:13 51°25.252 3°0.876 7.8 348 17.4 101580 71
2009-07-29 07:22:18 51°25.259 3°0.901 8.4 351 17.4 101580 72
2009-07-29 07:22:24 51°25.266 3°0.931 8.3 349 17.4 101580 72
2009-07-29 07:22:29 51°25.273 3°0.957 8.5 351 17.5 101580 71
2009-07-29 07:22:33 51°25.277 3°0.977 8.2 350 17.5 101580 71
2009-07-29 07:22:38 51°25.283 3°1.003 7.9 348 17.5 101580 73
2009-07-29 07:22:43 51°25.289 3°1.029 8.5 349 17.5 101580 73
2009-07-29 07:22:49 51°25.293 3°1.06 7.9 348 17.5 101580 71
2009-07-29 07:22:53 51°25.297 3°1.081 9 348 17.5 101580 71
2009-07-29 07:22:58 51°25.3 3°1.107 8.2 347 17.5 101580 72
2009-07-29 07:23:03 51°25.305 3°1.134 9.2 346 17.5 101580 72
2009-07-29 07:23:09 51°25.309 3°1.165 8.7 349 17.5 101580 72
2009-07-29 07:23:13 51°25.311 3°1.187 9 346 17.5 101580 72
2009-07-29 07:23:17 51°25.315 3°1.208 9.1 348 17.5 101580 72
2009-07-29 07:23:23 51°25.318 3°1.239 8.3 347 17.5 101580 72
2009-07-29 07:23:29 51°25.322 3°1.271 9.2 347 17.5 101580 70
2009-07-29 07:23:33 51°25.325 3°1.293 9.2 345 17.5 101580 70
2009-07-29 07:23:37 51°25.327 3°1.314 9.2 348 17.5 101580 71
2009-07-29 07:23:43 51°25.331 3°1.346 9.5 347 17.5 101580 71
2009-07-29 07:23:48 51°25.334 3°1.373 8.3 345 17.5 101580 70
2009-07-29 07:23:53 51°25.338 3°1.399 9.5 346 17.5 101580 70
2009-07-29 07:23:58 51°25.341 3°1.426 9.4 345 17.5 101580 71
2009-07-29 07:24:03 51°25.344 3°1.453 8.4 345 17.5 101580 71
2009-07-29 07:24:08 51°25.347 3°1.48 9.3 346 17.5 101570 70
2009-07-29 07:24:13 51°25.351 3°1.507 9.4 346 17.5 101570 70
2009-07-29 07:24:18 51°25.354 3°1.533 9.1 346 17.5 101580 70
2009-07-29 07:24:24 51°25.358 3°1.566 8.9 345 17.5 101580 70
2009-07-29 07:24:28 51°25.361 3°1.587 9 345 17.5 101570 71
2009-07-29 07:24:33 51°25.364 3°1.614 8.5 345 17.5 101570 71
2009-07-29 07:24:38 51°25.368 3°1.641 8.2 346 17.5 101580 70
2009-07-29 07:24:44 51°25.371 3°1.674 9.1 346 17.5 101580 70
2009-07-29 07:24:49 51°25.375 3°1.701 9.1 347 17.5 101580 71
2009-07-29 07:24:53 51°25.377 3°1.722 8 344 17.5 101580 71
2009-07-29 07:24:58 51°25.382 3°1.749 8.4 348 17.5 101580 70
2009-07-29 07:25:04 51°25.386 3°1.782 9 346 17.5 101580 70
2009-07-29 07:25:09 51°25.391 3°1.808 9.1 346 17.5 101580 72
2009-07-29 07:25:13 51°25.394 3°1.83 8.4 348 17.5 101580 72
2009-07-29 07:25:18 51°25.399 3°1.856 7.8 348 17.6 101580 70
2009-07-29 07:25:24 51°25.405 3°1.888 9.1 348 17.6 101580 70
2009-07-29 07:25:29 51°25.41 3°1.915 8.5 347 17.6 101580 71
2009-07-29 07:25:33 51°25.414 3°1.936 8.9 349 17.6 101580 71
2009-07-29 07:25:38 51°25.418 3°1.962 8.8 347 17.5 101580 71
2009-07-29 07:25:43 51°25.424 3°1.989 8 347 17.5 101580 71
2009-07-29 07:25:49 51°25.429 3°2.021 8.9 348 17.5 101580 71
2009-07-29 07:25:53 51°25.434 3°2.042 8.2 346 17.5 101580 71
2009-07-29 07:25:58 51°25.439 3°2.068 9.1 349 17.6 101580 71
2009-07-29 07:26:03 51°25.443 3°2.095 9.1 348 17.6 101580 71
2009-07-29 07:26:09 51°25.45 3°2.127 8.2 347 17.6 101580 72
2009-07-29 07:26:13 51°25.454 3°2.148 8.5 348 17.6 101580 72
2009-07-29 07:26:18 51°25.459 3°2.175 8 347 17.6 101580 72
2009-07-29 07:26:23 51°25.464 3°2.202 8.5 277 17.6 101580 72
2009-07-29 07:26:29 51°25.47 3°2.233 8.6 348 17.6 101580 72
2009-07-29 07:26:33 51°25.473 3°2.255 8 348 17.6 101580 72
2009-07-29 07:26:38 51°25.479 3°2.282 8.7 348 17.6 101580 71
2009-07-29 07:26:43 51°25.483 3°2.308 8.6 348 17.6 101580 71
2009-07-29 07:26:48 51°25.488 3°2.335 9.3 348 17.6 101580 72
2009-07-29 07:26:53 51°25.493 3°2.362 8.3 348 17.6 101580 72
2009-07-29 07:26:58 51°25.498 3°2.388 8.4 348 17.6 101580 72
2009-07-29 07:27:03 51°25.503 3°2.415 8.2 348 17.6 101580 72
2009-07-29 07:27:08 51°25.508 3°2.442 9.2 348 17.6 101580 70
2009-07-29 07:27:13 51°25.512 3°2.469 9.1 347 17.6 101580 70
2009-07-29 07:27:18 51°25.517 3°2.496 8.7 346 17.6 101580 72
2009-07-29 07:27:24 51°25.523 3°2.528 8.3 348 17.6 101580 72
2009-07-29 07:27:28 51°25.527 3°2.55 8.9 348 17.6 101580 72
2009-07-29 07:27:33 51°25.531 3°2.577 9.3 347 17.6 101580 72
2009-07-29 07:27:38 51°25.536 3°2.604 9 347 17.6 101580 72
2009-07-29 07:27:42 51°25.539 3°2.625 9.1 347 17.6 101580 72
2009-07-29 07:27:49 51°25.545 3°2.663 8.6 345 17.6 101580 71
2009-07-29 07:27:53 51°25.548 3°2.685 9.1 347 17.6 101580 71
2009-07-29 07:27:58 51°25.551 3°2.712 8.4 347 17.5 101580 71
2009-07-29 07:28:04 51°25.555 3°2.744 9.4 346 17.5 101580 71
2009-07-29 07:28:09 51°25.558 3°2.772 8.3 345 17.5 101580 70
2009-07-29 07:28:13 51°25.561 3°2.794 8.9 347 17.5 101580 70
2009-07-29 07:28:18 51°25.564 3°2.821 8.2 345 17.5 101580 72
2009-07-29 07:28:23 51°25.567 3°2.849 8.9 344 17.5 101580 72
2009-07-29 07:28:28 51°25.569 3°2.876 9.6 345 17.5 101580 71
2009-07-29 07:28:33 51°25.572 3°2.903 8.9 344 17.5 101580 71
2009-07-29 07:28:38 51°25.575 3°2.93 8.5 345 17.5 101580 71
2009-07-29 07:28:43 51°25.578 3°2.958 8.4 344 17.5 101580 71
2009-07-29 07:28:49 51°25.581 3°2.991 9.7 345 17.5 101580 71
2009-07-29 07:28:53 51°25.584 3°3.012 8.3 345 17.5 101580 71